This is the latest recevied weather packets stored in our database for station/object EB5AGF-13. If no packets are shown the sender has not sent any weather packets the latest 10 day(s).
| Time | Temp. | Humidity | Pressure | Rain* | Wind** | Luminosity | Snow |
|---|---|---|---|---|---|---|---|
| 1778183063 | 16.11° C | 86% | 1009.5 hPa | 0 mm | 1.34 m/s, 315° | 0 W/m² | - |
| 1778182757 | 16.67° C | 85% | 1009.5 hPa | 0 mm | 1.34 m/s, 5° | 0 W/m² | - |
| 1778182453 | 16.67° C | 86% | 1009.5 hPa | 0 mm | 1.79 m/s, 8° | 0 W/m² | - |
| 1778182150 | 16.67° C | 86% | 1009.2 hPa | 0 mm | 0.89 m/s, 347° | 0 W/m² | - |
| 1778181845 | 16.67° C | 85% | 1009.4 hPa | 0 mm | 0 m/s | 0 W/m² | - |
| 1778181541 | 16.67° C | 85% | 1009.2 hPa | 0 mm | 0.45 m/s, 2° | 0 W/m² | - |
| 1778181237 | 16.67° C | 84% | 1009 hPa | 0 mm | 0.45 m/s, 25° | 0 W/m² | - |
| 1778180917 | 17.22° C | 82% | 1009.1 hPa | 0 mm | 1.34 m/s, 9° | 0 W/m² | - |
| 1778180615 | 17.22° C | 81% | 1009 hPa | 0 mm | 1.34 m/s, 58° | 1 W/m² | - |
| 1778180293 | 17.22° C | 81% | 1009 hPa | 0 mm | 0.45 m/s, 32° | 2 W/m² | - |
| 1778179990 | 17.22° C | 82% | 1009 hPa | 0 mm | 0 m/s | 3 W/m² | - |
| 1778179670 | 17.22° C | 82% | 1008.9 hPa | 0 mm | 0.89 m/s, 358° | 5 W/m² | - |
| 1778179365 | 17.22° C | 83% | 1008.6 hPa | 0 mm | 0.45 m/s, 346° | 7 W/m² | - |
| 1778179061 | 17.78° C | 83% | 1008.7 hPa | 0 mm | 1.79 m/s, 348° | 10 W/m² | - |
| 1778178757 | 17.78° C | 82% | 1008.5 hPa | 0 mm | 0.89 m/s, 39° | 13 W/m² | - |
| 1778178454 | 17.78° C | 81% | 1008.3 hPa | 0 mm | 0.89 m/s, 6° | 15 W/m² | - |
| 1778178153 | 17.78° C | 81% | 1008.3 hPa | 0 mm | 0.89 m/s, 13° | 22 W/m² | - |
| 1778177853 | 17.78° C | 81% | 1008.3 hPa | 0 mm | 0.89 m/s, 5° | 27 W/m² | - |
| 1778177553 | 17.78° C | 80% | 1008.2 hPa | 0 mm | 2.24 m/s, 26° | 33 W/m² | - |
| 1778177253 | 17.78° C | 79% | 1008.1 hPa | 0 mm | 0.89 m/s, 19° | 51 W/m² | - |
| 1778176953 | 17.78° C | 78% | 1007.8 hPa | 0 mm | 1.79 m/s, 318° | 57 W/m² | - |
| 1778176652 | 18.33° C | 77% | 1008.1 hPa | 0 mm | 1.79 m/s, 9° | 65 W/m² | - |
| 1778176352 | 17.78° C | 76% | 1007.9 hPa | 0 mm | 2.24 m/s, 40° | 75 W/m² | - |
| 1778176053 | 17.78° C | 77% | 1007.9 hPa | 0 mm | 1.34 m/s, 29° | 50 W/m² | - |
| 1778175750 | 17.78° C | 78% | 1007.7 hPa | 0 mm | 1.79 m/s, 18° | 46 W/m² | - |
* Rain latest hour (hover to see other rain measurements)
** Current wind speed in m/s (hover to see current wind gust speed)